CW4498 Weather Reports


time (UTC)temp
F
wind
direction
speed
knots
gust
knots
rain 1hr
in
rain 24hr
in
rain mn
in
humidity
%
barometer
mb
20260506073009 28 46 0.0 2.6 0.00 0.24 0.00 92 1027.8
20260506071507 28 39 0.0 3.5 0.00 0.24 0.00 92 1027.7
20260506061503 28 105 0.0 3.5 0.00 0.24 0.24 93 1027.3
20260506044555 28 42 0.0 1.7 0.00 0.24 0.24 94 1026.7
20260506043054 28 44 0.0 2.6 0.00 0.24 0.24 94 1026.0
20260506041556 29 317 0.0 1.7 0.00 0.24 0.24 94 1026.2
20260506040100 29 313 0.0 0.9 0.00 0.24 0.24 94 1025.8
20260506034604 29 51 0.0 2.6 0.00 0.24 0.24 94 1025.6
20260506033048 29 66 0.0 3.5 0.00 0.24 0.24 94 1025.4
20260506031557 29 314 0.0 1.7 0.00 0.24 0.24 94 1025.2
20260506030044 29 314 0.0 0.9 0.00 0.24 0.24 94 1024.5
20260506024543 30 313 0.0 0.9 0.00 0.24 0.24 94 1024.2
20260506023042 30 314 0.0 1.7 0.00 0.24 0.24 94 1023.9
20260506021539 30 313 0.0 1.7 0.00 0.24 0.24 94 1023.5
20260506020039 30 313 0.0 1.7 0.00 0.24 0.24 94 1023.4
20260506014538 31 313 0.0 0.9 0.00 0.25 0.24 94 1023.0
20260506013036 31 313 0.0 2.6 0.00 0.25 0.24 94 1022.7
20260506011537 31 131 0.0 0.0 0.00 0.25 0.24 94 1022.5
20260506010041 31 130 0.0 0.9 0.00 0.25 0.24 94 1022.4
20260506004536 31 131 0.0 1.7 0.00 0.25 0.24 94 1022.2
20260506003037 31 113 0.0 1.7 0.00 0.25 0.24 94 1022.3
20260506001531 31 120 0.0 2.6 0.00 0.25 0.24 94 1022.1
20260506000032 32 107 0.9 4.3 0.00 0.25 0.24 94 1021.6
20260505234530 32 128 2.6 5.2 0.01 0.25 0.24 94 1021.0
20260505233030 32 128 2.6 7.0 0.02 0.25 0.24 94 1020.7
20260505231532 33 115 0.9 6.1 0.02 0.25 0.24 94 1020.5
20260505230031 33 59 2.6 7.8 0.03 0.25 0.24 94 1019.8
20260505224524 33 128 1.7 7.0 0.04 0.24 0.23 94 1019.7
20260505223023 33 119 1.7 6.1 0.03 0.23 0.22 94 1019.3
20260505221521 33 131 2.6 8.7 0.04 0.23 0.22 94 1019.3
20260505220019 33 78 0.9 6.1 0.03 0.21 0.20 94 1019.4
20260505214518 33 105 1.7 7.0 0.03 0.20 0.19 94 1019.6
20260505213017 33 119 1.7 6.1 0.04 0.20 0.19 94 1019.5
20260505211516 33 116 3.5 7.8 0.04 0.19 0.18 94 1019.5
20260505210023 33 96 1.7 7.0 0.04 0.18 0.17 93 1019.6
20260505204515 33 121 0.0 6.1 0.04 0.17 0.16 93 1019.7
20260505203013 33 128 2.6 5.2 0.05 0.16 0.15 93 1019.5
20260505201510 33 116 0.9 4.3 0.06 0.15 0.14 93 1019.3
20260505200017 34 124 1.7 7.0 0.07 0.14 0.13 93 1019.5
20260505194509 34 119 4.3 7.8 0.06 0.13 0.12 93 1019.5
20260505193006 34 119 2.6 6.1 0.06 0.11 0.10 93 1019.6
20260505191506 34 115 0.9 6.1 0.05 0.09 0.08 92 1019.4
20260505190004 34 101 1.7 5.2 0.04 0.07 0.06 92 1019.3
20260505184503 34 107 2.6 7.0 0.04 0.07 0.06 91 1019.2
20260505183001 35 149 0.0 0.9 0.02 0.05 0.04 91 1019.3
20260505181601 35 149 0.0 0.0 0.02 0.04 0.03 91 1019.4
20260505180100 34 149 0.0 0.9 0.01 0.03 0.02 91 1019.3
20260505174606 34 35 0.0 1.7 0.01 0.03 0.02 91 1019.3
20260505173100 34 311 0.0 2.6 0.01 0.03 0.02 91 1019.3
20260505171604 33 42 0.0 1.7 0.00 0.02 0.01 90 1019.5
20260505170057 33 340 0.0 4.3 0.01 0.02 0.01 90 1019.4
20260505164616 33 23 0.0 2.6 0.01 0.02 0.01 89 1019.3
20260505163102 34 36 0.0 2.6 0.01 0.02 0.01 89 1019.1
20260505161600 34 326 0.0 1.7 0.01 0.02 0.01 90 1019.1
20260505153044 34 57 0.0 2.6 0.00 0.01 0.00 88 1018.9
20260505151543 35 126 0.0 1.7 0.00 0.01 0.00 88 1018.9
20260505124524 39 119 0.0 6.1 0.00 0.01 0.00 82 1016.8
20260505123021 40 90 0.9 4.3 0.00 0.01 0.00 81 1016.5
20260505121520 40 128 0.9 5.2 0.00 0.01 0.00 79 1016.0
20260505120019 40 117 0.0 1.7 0.00 0.01 0.00 78 1015.8
20260505114517 40 108 0.9 4.3 0.00 0.01 0.00 78 1015.8
20260505113016 41 103 0.0 1.7 0.00 0.01 0.00 79 1015.6
20260505111522 41 109 0.0 1.7 0.00 0.01 0.00 80 1015.4
20260505101509 41 141 0.0 1.7 0.00 0.01 0.00 87 1015.1
20260505100014 40 138 0.0 2.6 0.00 0.01 0.00 86 1014.9
20260505094507 41 146 0.0 1.7 0.00 0.01 0.00 86 1014.8
20260505093003 41 325 0.0 0.0 0.00 0.01 0.00 85 1014.9
20260505091500 42 324 0.0 0.0 0.00 0.01 0.00 84 1014.8
20260505090059 42 324 0.0 0.0 0.00 0.01 0.00 83 1014.9
20260505084558 42 325 0.0 0.9 0.00 0.01 0.00 82 1015.0
20260505083058 42 324 0.0 0.0 0.00 0.01 0.00 82 1015.4
20260505081610 42 324 0.0 0.9 0.00 0.01 0.00 83 1015.4
20260505080107 42 325 0.0 0.9 0.00 0.01 0.00 83 1015.3
20260505074555 42 324 0.0 0.9 0.00 0.01 0.00 83 1015.6